DMSP 5D-2 F13 DEB, 40600

Orbit data source: Space-Track

DMSP 5D-2 F13 DEB, 40600 is space debris in SSO originally from a launch on Fri, 24 Mar 1995 UTC launched from the Air Force Western Test Range (AFWTR). Debris objects in space refer to the collection of defunct objects orbiting the Earth. Examples of debris include non-operational satellites, rocket bodies, and fragments generated from explosions, collisions, or faulty payload assembly.

Loading next visibility...
Identifier
40600, 1995-015EX
Orbit
SSO
Country
Flag of USUS
Related business
Manufacturer
Unknown
Mission
Spacecraft
Bus & Motor
Unknown
Mass
Unknown
Launch date (UTC)
1995-03-24 (31 years ago)
Launch vehicle
Unknown
Launch site
Air Force Western Test Range (AFWTR)
Object type
Payload
Rocket body
Debris
Shape & HBR
Unknown shape, 0.1 m
Radar Cross Section
Small (<0.1 m²)

Expand to show TLE details & history
Last TLE update: 3 days ago

TLE from 3 days ago
0 DMSP 5D-2 F13 DEB
1 40600U 95015EX  25301.55637651  .00008740  00000-0  31697-2 0  9996
2 40600  98.8602 337.4879 0034132 347.6037  12.4303 14.33254200542658
Epoch: 2025-10-28T13:21Z
TLE epoch observation values (Epoch: 2025-10-28T13:21:10.930Z)
Latitude
-0.00004°
Longitude
100.05019°
Altitude
759.938 km
Speed
7.487 km/s
True Right ascension
22h 29m 57s
True Declination
0° 00' 00"
Sunlit
Object was in full shadow at epoch
Visualization orbit readout
Latitude
Unknown
Longitude
Unknown
Altitude
Unknown
Speed
Unknown
Apparent Right ascension
Unknown
Apparent Declination
Unknown
Sunlit
N/A
Visualization observer readout
Local Sidereal Time
21:53:36
Azimuth
Unknown
Elevation
Unknown
Doppler factor
Unknown
Orbital elements
Apogee altitude
802.448 km
Perigee altitude
753.597 km
Semi-major axis
7,156.159 km
Eccentricity
0.00341
Inclination
98.8602°
RAAN
337.4879°
Arg. of periapsis
347.6037°
True anomaly
12.51484°
Mean anomaly
12.4303°
Eccentric anomaly
12.47254°
Mean motion
3.58528 °/min
Orbital period
100.41 mins
BSTAR
0.0031697
Loading maneuver chart data...
Computing Atmospheric mass density...

Documentation

Showing up to 5 results
|